OpenBCM V1.08-3-g9b42 (Linux)

Packet Radio Mailbox

OK0NBR

[Sao_Jose_dos_Campo]

 Login: GUEST





  
I0OJJ  > KEPS     09.10.25 04:03l 316 Lines 15004 Bytes #156 (0) @ AMSAT
BID : ORB25282.1
Read: GUEST
Subj: 2Line Orbital Elements 25282.AMSAT
Path: OK0NBR<IW0QNL<HB9ON<DK0WUE<PD0LPM<IR0AAB<I0OJJ
Sent: 251009/0021z @:I0OJJ.ITA.EU [Rome] obcm1.08-11-2-gbfe9
From: I0OJJ @ I0OJJ.ITA.EU (Gustavo)
To:   KEPS @ AMSAT
X-Info: This message was generated automatically


QST de W1STR

AMSAT Orbital Elements for Amateur Satellites in TLE Format
From Orbital Analysis Office
New England Sci-Tech STEM Education Center
Natick MA October 09, 2025
To all radio amateurs


These element sets describe the orbits of various satellites 
in use by the amateur radio community. For details see:
www.amsat.org/keplerian-elements-formats/

A daily update of element sets is available at:
www.amsat.org/tle/daily-bulletin.txt
or without bulletin text:
www.amsat.org/tle/dailytle.txt


AO-07
1 07530U 74089B   25281.48412686 -.00000037  00000-0  57315-4 0  9996
2 07530 101.9989 287.0551 0011917 251.4135 277.3102 12.53692294328976
UO-11
1 14781U 84021B   25281.85295962  .00002740  00000-0  29111-3 0  9990
2 14781  97.7704 245.9412 0006253 303.4971  56.5648 14.89809962219694
AO-27
1 22825U 93061C   25281.40631216  .00000182  00000-0  86476-4 0  9995
2 22825  98.7239 343.4894 0009432 116.2434 243.9719 14.30841850670993
FO-29
1 24278U 96046B   25281.63718529 -.00000005  00000-0  30285-4 0  9995
2 24278  98.5540 159.4906 0350497  29.0350 332.9796 13.53256395439149
NOAA-15
1 25338U 98030A   25281.83308532  .00000214  00000-0  10557-3 0  9999
2 25338  98.5295 304.0164 0010373  10.8523 349.2880 14.27032059425448
GO-32
1 25397U 98043D   25281.51827417  .00000131  00000-0  77001-4 0  9997
2 25397  98.9853 263.2429 0000947 167.0765 193.0438 14.24349702415509
ISS
1 25544U 98067A   25281.52879516  .00013673  00000-0  24910-3 0  9990
2 25544  51.6312 105.3299 0000824 223.8777 136.2147 15.49772654532744
NO-44
1 26931U 01043C   25281.70428828  .00000270  00000-0  13211-3 0  9996
2 26931  67.0506 174.6559 0007121 273.8095  86.2193 14.31801154254445
SO-50
1 27607U 02058C   25281.15673927  .00002363  00000-0  30351-3 0  9994
2 27607  64.5538 188.2374 0067902 308.9395  50.5670 14.82049649227099
CO-55
1 27844U 03031E   25281.46111428  .00000484  00000-0  22945-3 0  9998
2 27844  98.6790 288.1979 0009326 189.9085 170.1912 14.24098633155844
CO-57
1 27848U 03031J   25281.46648701  .00000403  00000-0  19688-3 0  9992
2 27848  98.6820 288.1166 0008900 208.3972 151.6723 14.23418767155564
RS-22
1 27939U 03042A   25281.83875884  .00001716  00000-0  27723-3 0  9997
2 27939  98.3380  94.3270 0011205 351.6120 115.3190 14.72693043178549
CO-58
1 28895U 05043F   25281.85165317  .00002649  00000-0  43476-3 0  9996
2 28895  98.2673  67.8722 0013324 283.6468  76.3254 14.71498328 64779
CO-65
1 32785U 08021C   25281.87640519  .00009198  00000-0  63669-3 0  9994
2 32785  97.8000 254.1310 0010305 152.0691 208.1090 15.05863120947326
CO-66
1 32791U 08021J   25281.42903381  .00021467  00000-0  93560-3 0  9997
2 32791  97.7399 264.4984 0006387 102.4718 257.7232 15.22194656948855
RS-30
1 32953U 08025A   25281.84476030  .00000050  00000-0  29053-3 0  9994
2 32953  82.5038 151.7872 0019470 138.1267 222.1307 12.43169160788463
NOAA-19
1 33591U 09005A   25281.82258486  .00000086  00000-0  69977-4 0  9992
2 33591  98.9851 347.1383 0014101  25.5182 334.6683 14.13416177858977
SRMSAT
1 37841U 11058D   25281.84677191  .00000483  00000-0  11867-3 0  9990
2 37841  19.9710 140.6885 0011705 318.8917 136.0092 14.11477797722263
ZACUBE-1
1 39417U 13066B   25281.42186207  .00009604  00000-0  80299-3 0  9998
2 39417  97.7938 237.9618 0043064  11.1629 349.0538 14.97978972642997
Delfi-N3xt
1 39428U 13066N   25281.31281487  .00014781  00000-0  14338-2 0  9996
2 39428  97.8295 197.6938 0080569 323.8731  35.7059 14.90313350637044
GOMX-1
1 39430U 13066Q   25281.82452103  .00002888  00000-0  44791-3 0  9992
2 39430  97.6676 133.0057 0131544 163.5737 196.9794 14.68173000633019
LO-74
1 39440U 13066AA  25281.79597343  .00006309  00000-0  62110-3 0  9992
2 39440  97.8600 225.6424 0062061 138.3558 222.2410 14.90976582639490
AO-73
1 39444U 13066AE  25281.83801516  .00014173  00000-0  10022-2 0  9993
2 39444  97.7976 244.4316 0039515 340.2354  19.7338 15.04353974641800
DTUSAT-2
1 40030U 14033W   25281.90206442  .00012202  00000-0  75027-3 0  9994
2 40030  98.0689 259.8180 0009431  23.3417 336.8237 15.10172396614692
EO-80
1 40032U 14033Y   25281.45199695  .00011676  00000-0  71691-3 0  9994
2 40032  98.0570 258.8307 0006662 325.7856  34.2942 15.10256018614609
LILACSAT-2
1 40908U 15049K   25281.83661088  .00019109  00000-0  44746-3 0  9996
2 40908  97.4994 305.3187 0010596  86.6696 273.5763 15.42102519556890
IO-86
1 40931U 15052B   25151.18580175  .00001241  00000-0  78118-4 0  9996
2 40931   6.0006  24.0987 0012733 338.8432  21.1169 14.78805930523159
Horyu-4
1 41340U 16012D   25281.64638244  .00047155  00000-0  10049-2 0  9995
2 41340  30.9964  34.4559 0003533 244.9919 115.0362 15.43657626531469
Lapan A3
1 41603U 16040E   25281.86603906  .00005271  00000-0  17918-3 0  9995
2 41603  97.1422 281.8151 0010486 185.1555 174.9581 15.30818704516336
CAS-2T
1 41847U 16066G   25281.62751073  .00002579  00000-0  37228-3 0  9990
2 41847  98.4104 355.0024 0345084 172.0013 188.6884 14.43850231468483
CAS-4B
1 42759U 17034B   25281.46497905  .01011804  56337-3  12712-2 0  9991
2 42759  42.9941 308.6963 0016089  73.6672 286.5977 16.06534598461662
CAS-4A
1 42761U 17034D   25281.34159269  .04203186  90411-5  12507-2 0  9993
2 42761  42.9927 303.5081 0008135  81.2710 278.9099 16.26032227461692
TechnoSat
1 42829U 17042E   25281.41900610  .00005946  00000-0  44913-3 0  9996
2 42829  97.3985  84.4912 0017767 232.9069 127.0533 15.02618094448862
AO-91
1 43017U 17073E   25281.87649963  .00011708  00000-0  56897-3 0  9998
2 43017  97.5026 149.6166 0167912 112.4329 249.4780 15.06943293427466
S-Net D
1 43186U 18014G   25281.24624840  .00007809  00000-0  44318-3 0  9991
2 43186  97.5490 182.9218 0009356 156.8695 203.2959 15.13186526420613
S-Net B
1 43187U 18014H   25281.31941113  .00008178  00000-0  46410-3 0  9990
2 43187  97.5494 182.9718 0010209 153.1365 207.0397 15.13165360420628
S-Net A
1 43188U 18014J   25281.44458964  .00008043  00000-0  45614-3 0  9998
2 43188  97.5501 183.2624 0010065 153.4952 206.6796 15.13194994420648
S-Net C
1 43189U 18014K   25281.45438880  .00008313  00000-0  47152-3 0  9994
2 43189  97.5518 183.3067 0011795 147.9176 212.2776 15.13161656419194
Ten-Koh
1 43677U 18084G   25281.46971402  .00003510  00000-0  27830-3 0  9991
2 43677  98.0745  98.5175 0008134 210.4825 149.5926 15.01216462378377
PO-101
1 43678U 18084H   25281.84420596  .00003721  00000-0  31266-3 0  9999
2 43678  98.1061 102.6951 0007396 233.0992 126.9553 14.98945393378545
QO-100
1 43700U 18090A   25281.78315558  .00000146  00000-0  00000+0 0  9992
2 43700   0.0169 171.3900 0002113  71.5044  82.5073  1.00271366 25155
MinXSS-2
1 43758U 18099A   25281.64836765  .00027943  00000-0  95228-3 0  9991
2 43758  97.4889 348.3164 0011780  91.3122 268.9468 15.30277547375456
AO-95
1 43770U 18099N   25281.12692244  .00017328  00000-0  81161-3 0  9997
2 43770  97.4780 337.9676 0011049 147.0486 213.1439 15.19725365374847
SNUSat 2
1 43782U 18099AA  25281.11102748  .00013591  00000-0  69693-3 0  9998
2 43782  97.4455 333.6858 0013038  96.6589 263.6128 15.16597065374753
SnugLite
1 43784U 18099AC  25281.59083545  .00015107  00000-0  70139-3 0  9997
2 43784  97.4270 333.9981 0004870  96.4216 263.7574 15.20101414375008
ITASat 1
1 43786U 18099AE  25281.58912801  .00009824  00000-0  53312-3 0  9997
2 43786  97.4427 333.2902 0014904 143.2476 216.9781 15.14652223374762
EAGLET 1
1 43790U 18099AJ  25281.39330259  .00006043  00000-0  37306-3 0  9997
2 43790  97.4623 332.6177 0013110 130.1040 230.1341 15.10187717374297
ESEO
1 43792U 18099AL  25281.84996718  .00002547  00000-0  19264-3 0  9995
2 43792  97.4356 324.6612 0014664 108.1739 252.1084 15.03117011374034
JO-97
1 43803U 18099AX  25281.61049564  .00019820  00000-0  81823-3 0  9993
2 43803  97.4522 339.7430 0008371  85.2535 274.9658 15.24033223375185
Suomi 100
1 43804U 18099AY  25281.11323659  .00018171  00000-0  81912-3 0  9996
2 43804  97.4589 338.1629 0013077  89.3835 270.8899 15.21013024375006
ISAT
1 43879U 18111D   25281.50813560  .00041523  00000-0  11881-2 0  9995
2 43879  97.5878 198.9310 0010544 118.7334 241.4970 15.35782752372216
UWE-4
1 43880U 18111E   25281.71995159  .00028542  00000-0  97273-3 0  9991
2 43880  97.5818 196.6739 0012758 133.2345 226.9962 15.30261232372124
Sparrow
1 43881U 18111F   25281.77062826  .00043006  00000-0  11654-2 0  9994
2 43881  97.6053 202.5992 0007848 141.5155 218.6650 15.37497330372365
Prox-1
1 44339U 19036A   25281.48282722  .00016702  00000-0  19826-2 0  9999
2 44339  23.9978 346.1499 0006926  22.0926 337.9870 14.82806720335964
Taurus 1
1 44530U 19059C   25281.83104481  .00010396  00000-0  18352-2 0  9997
2 44530  98.6207  67.2020 0008852  20.5283 339.6274 14.67630331321712
Duchifat 3
1 44854U 19089C   25281.39751653  .00152976  00000-0  15909-2 0  9995
2 44854  36.9363 300.0127 0007505 185.9040 174.1634 15.63148892321801
TO-108
1 44881U 19093C   25281.85544789  .00001492  00000-0  17715-3 0  9995
2 44881  97.7826 354.9241 0013485 187.6300 172.4713 14.85878507314084
FloripaSat 1
1 44885U 19093G   25281.83040708  .00009125  00000-0  73748-3 0  9998
2 44885  97.8107   9.7635 0010413 168.7089 191.4369 14.99992820314915
RS-44
1 44909U 19096E   25281.34315173  .00000035  00000-0  94343-4 0  9991
2 44909  82.5213 147.0688 0217874  13.4795 347.1999 12.79744344270131
UPMSat 2
1 46276U 20061E   25281.66377301  .02515497  23500-5  97500-3 0  9997
2 46276  97.2207   2.3657 0007759 259.4418 100.6000 16.23958114284605
SALSAT
1 46495U 20068K   25281.46290577  .00011849  00000-0  48074-3 0  9991
2 46495  97.8734 265.3114 0013109 100.7659 259.5054 15.24704280276932
